Location: algorfa
(38.0849°N, 0.7965°W)
Time: 16:38:44
(UTC+02:00)

Tiangong - Visible Passes

Search period start: 05 October 2022 00:00
Search period end: 15 October 2022 00:00
Orbit: 383 x 386 km, 41.5° (Epoch: 05 October)

Date Brightness Start Highest point End Pass type
(mag) Time Alt. Az. Time Alt. Az. Time Alt. Az.
06 Oct -0.4 21:10:20 10° SSW 21:11:59 22° S 21:11:59 22° S visible
07 Oct -0.2 20:11:19 10° S 20:13:23 16° SE 20:15:19 11° ESE visible
07 Oct 0.7 21:46:44 10° WSW 21:47:33 17° WSW 21:47:33 17° WSW visible
08 Oct -1.9 20:46:56 10° SW 20:50:00 50° SSE 20:50:43 40° ESE visible
09 Oct -0.9 21:23:40 10° W 21:25:57 42° W 21:25:57 42° W visible
10 Oct -2.2 20:23:38 10° WSW 20:26:47 84° SSE 20:28:52 19° ENE visible
10 Oct 1.3 22:00:43 10° WNW 22:01:04 12° WNW 22:01:04 12° WNW visible
11 Oct -1.6 21:00:32 10° W 21:03:36 49° N 21:03:52 47° N visible
12 Oct -1.9 20:00:19 10° W 20:03:28 65° NNW 20:06:36 10° ENE visible
12 Oct 0.4 21:37:29 10° WNW 21:38:47 21° WNW 21:38:47 21° WNW visible
13 Oct -1.4 20:37:14 10° WNW 20:40:16 43° N 20:41:27 28° NE visible
14 Oct -0.8 21:14:00 10° WNW 21:16:15 36° NW 21:16:15 36° NW visible
